Location: Arbon
(43.0005°N, 0.7472°E)
Time: 02:11:13
(UTC+00:00)

Cosmos 1953 Rocket - Pass Details

Date: 07 August 2020
Orbit: 604 x 635 km, 82.5° (Epoch: 19 September)

Event Time Altitude Azimuth Distance (km) Brightness Sun altitude
Rises 03:55:21 0° 356° (N) 2,944 7.5 -10.3°
Reaches altitude 10° 03:57:40 10° 1° (N) 2,031 6.7 -10.0°
Maximum altitude 04:02:05 54° 79° (E) 773 4.5 -9.3°
Drops below altitude 10° 04:06:27 10° 157° (SSE) 2,008 6.1 -8.6°
Sets 04:08:43 0° 162° (SSE) 2,907 6.9 -8.3°
